Location: Gleizolles
(44.4833°N, 6.7667°E)
Time: 00:14:05
(UTC+00:00)

S-56A Canister/Altair - Pass Details

Date: 01 July 2024
Orbit: 638 x 2488 km, 38.9° (Epoch: 24 July)

Event Time Altitude Azimuth Distance (km) Brightness Sun altitude
Rises 16:21:50 0° 203° (SSW) 3,122 10.9 29.1°
Reaches altitude 10° 16:24:39 10° 184° (S) 2,367 10.1 28.6°
Maximum altitude 16:28:26 19° 140° (SE) 2,077 9.5 27.9°
Drops below altitude 10° 16:33:06 10° 98° (E) 3,026 10.1 27.1°
Sets 16:37:21 0° 83° (E) 4,364 10.8 26.3°
